{"data":{"norad_id":52295,"intl_designator":"2022-041AL","name":"STARLINK-3765","alt_names":[],"object_type":"PAYLOAD","status":"ACTIVE","operator":null,"country":"US","launch_date":"2022-04-21","launch_site_code":"AFETR","launch_vehicle":null,"mission":null,"orbit_class":"UNKNOWN","rcs_meters":null,"size_class":null,"mass_kg":null,"dimensions":null,"purposes":["comms"],"wikipedia_slug":null,"has_3d_model":false,"image_url":null,"decayed_at":null,"tle_current":{"epoch":"2026-05-25T04:45:11.183904Z","epoch_age_seconds":57264,"freshness":"FRESH","line1":"1 52295U 22041AL  26145.19804611 -.00001325  00000+0 -65142-4 0  9994","line2":"2 52295  53.2141 115.6588 0001676  74.9337 285.1841 15.08843222226057","mean_motion":15.08843222,"eccentricity":0.0001676,"inclination_deg":53.2141,"raan_deg":115.6588,"arg_perigee_deg":74.9337,"mean_anomaly_deg":285.1841,"bstar":-6.5142e-5,"rev_number":22605,"period_min":95.437350879388,"perigee_km":538.574105514,"apogee_km":540.89297571922,"semimajor_km":6917.8705406166,"source":"CELESTRAK","updated_at":"2026-05-25T13:38:17.086906Z"}}}